1487055601.22,11843,10.38,74378.0,-3.37,-32.07,-32.69,0,*50
1487055602.46,11844,10.38,74378.8,-3.35,-32.29,-32.91,0,*5E
1487055603.69,11845,10.38,74378.8,-3.35,-32.39,-33.09,0,*5E
1487055604.91,11846,10.38,74370.3,-3.35,-32.57,-33.15,0,*58
1487055606.17,11847,10.38,74372.5,-3.35,-32.45,-33.09,0,*57
1487055607.4,11848,10.38,74372.3,-3.35,-32.91,-33.49,0,*55
1487055608.64,11849,10.38,74374.3,-3.35,-33.09,-33.67,0,*58
1487055609.91,11850,10.38,74374.0,-3.35,-32.79,-33.31,0,*55
1487055611.12,11851,10.38,74372.3,-3.35,-33.21,-33.83,0,*51
1487055612.38,11852,10.38,74374.5,-3.35,-32.63,-33.31,0,*5C
1487055613.62,11853,10.38,74372.5,-3.35,-32.63,-33.21,0,*5C
1487055614.83,11854,10.38,74372.3,-3.35,-32.57,-33.15,0,*5B
1487055616.07,11855,10.38,74378.0,-3.35,-32.63,-33.21,0,*5A
1487055617.31,11856,10.38,74374.3,-3.35,-32.57,-33.09,0,*54
1487055618.57,11857,10.38,74376.3,-3.37,-32.45,-33.15,0,*59
1487055619.81,11858,10.38,74376.5,-3.37,-32.13,-32.69,0,*5F
1487055621.04,11859,10.38,74378.5,-3.35,-32.29,-32.91,0,*52
1487055622.28,11860,10.38,74376.3,-3.35,-32.23,-32.79,0,*54
1487055623.52,11861,10.38,74380.0,-3.35,-32.23,-32.79,0,*55
1487055624.77,11862,10.38,74376.0,-3.33,-32.07,-32.57,0,*5A
1487055626.01,11863,10.38,74380.8,-3.35,-32.29,-32.91,0,*5B
1487055627.27,11864,10.38,74382.5,-3.33,-32.29,-32.91,0,*5A
1487055628.53,11865,10.38,74378.3,-3.33,-32.13,-32.63,0,*5F
1487055629.82,11866,10.38,74380.0,-3.33,-32.07,-32.63,0,*59
1487055631.08,11867,10.38,74384.5,-3.33,-32.13,-32.63,0,*5D
1487055632.37,11868,10.38,74380.5,-3.29,-32.07,-32.75,0,*5B
1487055633.63,11869,10.38,74380.3,-3.29,-31.85,-32.39,0,*5B
1487055634.87,11870,10.38,74382.5,-3.27,-31.95,-32.39,0,*5C
1487055636.1,11871,10.38,74380.8,-3.29,-32.39,-33.03,0,*5E
1487055637.34,11872,10.38,74380.8,-3.27,-32.07,-32.69,0,*53
1487055638.61,11873,10.38,74386.8,-3.29,-32.07,-32.69,0,*5C
1487055639.81,11874,10.38,74386.8,-3.27,-32.39,-33.03,0,*55
1487055641.02,11875,10.38,74384.3,-3.27,-32.23,-32.69,0,*52
1487055642.22,11876,10.38,74384.0,-3.27,-32.35,-33.03,0,*5B
1487055643.48,11877,10.38,74388.3,-3.27,-32.19,-32.85,0,*5B
1487055644.69,11878,10.38,74390.5,-3.27,-32.01,-32.57,0,*52
1487055645.95,11879,10.38,74384.5,-3.25,-31.91,-32.51,0,*5D
1487055647.21,11880,10.38,74380.8,-3.25,-32.13,-32.79,0,*58
1487055648.49,11881,10.38,74382.3,-3.25,-32.45,-32.97,0,*5A
1487055649.75,11882,10.38,74380.0,-3.25,-32.45,-33.03,0,*55
1487055651.01,11883,10.38,74364.3,-3.25,-32.63,-33.21,0,*50
1487055652.25,11884,10.38,74362.3,-3.23,-32.69,-33.27,0,*5D
1487055653.5,11885,10.38,74364.0,-3.25,-33.27,-33.95,0,*58
1487055654.72,11886,10.38,74370.0,-3.25,-33.55,-34.25,0,*52
1487055655.98,11887,10.38,74372.5,-3.25,-33.27,-33.95,0,*5A
1487055657.24,11888,10.38,74370.5,-3.27,-32.75,-33.31,0,*5F
1487055658.47,11889,10.38,74370.5,-3.29,-32.39,-32.91,0,*53
1487055659.71,11890,10.38,74374.0,-3.27,-32.69,-33.27,0,*5C
1487055660.95,11891,10.38,74374.3,-3.27,-32.51,-33.27,0,*56
1487055662.18,11892,10.38,74372.0,-3.27,-32.23,-32.75,0,*56
1487055663.42,11893,10.38,74374.5,-3.27,-32.19,-32.69,0,*53
1487055664.7,11894,10.38,74374.5,-3.25,-32.45,-32.97,0,*5E
1487055665.96,11895,10.44,74376.3,-3.25,-32.69,-33.27,0,*5B
1487055667.17,11896,10.38,74368.3,-3.23,-32.57,-33.15,0,*52
1487055668.46,11897,10.38,74368.5,-3.25,-32.63,-33.27,0,*53
1487055669.71,11898,10.38,74368.5,-3.25,-33.03,-33.61,0,*59
1487055670.97,11899,10.38,74370.3,-3.25,-33.03,-33.73,0,*5B
1487055672.21,11900,10.38,74368.8,-3.23,-32.79,-33.37,0,*50
1487055673.46,11901,10.38,74364.3,-3.25,-33.61,-34.07,0,*5B
1487055674.69,11902,10.38,74366.0,-3.27,-33.09,-33.67,0,*55
1487055675.96,11903,10.38,74366.8,-3.29,-34.01,-34.77,0,*53
1487055677.19,11904,10.38,74370.8,-3.27,-34.01,-34.71,0,*5C
1487055678.44,11905,10.38,74370.3,-3.29,-33.67,-34.19,0,*5A
1487055679.64,11906,10.38,74366.8,-3.27,-33.15,-33.83,0,*56
1487055680.9,11907,10.38,74366.8,-3.29,-33.43,-34.13,0,*54
1487055682.13,11908,10.38,74366.5,-3.29,-33.95,-34.71,0,*54
1487055683.37,11909,10.38,74368.0,-3.33,-34.07,-34.77,0,*54
1487055684.64,11910,10.38,74364.5,-3.33,-34.07,-34.65,0,*5F
1487055685.91,11911,10.44,74370.3,-3.33,-34.07,-34.83,0,*56
1487055687.17,11912,10.38,74370.0,-3.33,-33.49,-34.07,0,*54
1487055688.43,11913,10.44,74372.5,-3.35,-32.75,-33.31,0,*5F
1487055689.64,11914,10.38,74370.3,-3.35,-33.15,-33.83,0,*56
1487055690.88,11915,10.38,74370.5,-3.35,-33.37,-33.89,0,*5D
1487055692.12,11916,10.44,74380.5,-3.35,-33.09,-33.67,0,*53
1487055693.38,11917,10.38,74374.5,-3.33,-32.91,-33.49,0,*58
1487055694.64,11918,10.38,74380.8,-3.35,-33.09,-33.73,0,*58
1487055695.9,11919,10.44,74376.0,-3.35,-32.97,-33.73,0,*5F
1487055697.17,11920,10.44,74378.8,-3.33,-33.37,-34.01,0,*5A
1487055698.4,11921,10.44,74374.0,-3.35,-33.67,-34.19,0,*51
1487055699.64,11922,10.44,74374.8,-3.35,-33.21,-33.89,0,*5E
1487055700.87,11923,10.44,74376.8,-3.35,-33.67,-34.19,0,*53
1487055702.08,11924,10.44,74372.3,-3.35,-33.21,-33.83,0,*52
1487055703.29,11925,10.38,74370.3,-3.35,-33.15,-33.83,0,*54
1487055704.53,11926,10.38,74372.8,-3.35,-34.07,-34.65,0,*5C
1487055705.8,11927,10.38,74370.3,-3.35,-34.01,-34.65,0,*5B
1487055707.06,11928,10.38,74372.8,-3.37,-33.15,-33.77,0,*50
1487055708.29,11929,10.44,74372.0,-3.39,-33.43,-33.95,0,*50
1487055709.52,11930,10.38,74372.3,-3.39,-32.63,-33.21,0,*54
1487055710.8,11931,10.38,74370.5,-3.37,-32.97,-33.61,0,*54
1487055712.05,11932,10.44,74374.3,-3.37,-33.15,-33.61,0,*5C
1487055713.28,11933,10.38,74374.5,-3.39,-33.21,-33.77,0,*53
1487055714.54,11934,10.44,74378.0,-3.37,-33.21,-33.77,0,*5A
1487055715.8,11935,10.44,74374.8,-3.37,-33.21,-33.77,0,*5B
1487055717.09,11936,10.44,74374.3,-3.37,-32.85,-33.43,0,*50
1487055718.35,11937,10.38,74374.5,-3.37,-33.03,-33.61,0,*5E
1487055719.61,11938,10.38,74370.8,-3.37,-32.97,-33.55,0,*5A
1487055720.86,11939,10.44,74372.8,-3.37,-33.43,-34.07,0,*53
1487055722.12,11940,10.44,74374.8,-3.37,-33.43,-34.07,0,*5D
1487055723.38,11941,10.44,74378.8,-3.37,-33.03,-33.61,0,*5F
1487055724.64,11942,10.44,74382.5,-3.39,-32.79,-33.43,0,*5E
1487055725.9,11943,10.44,74376.8,-3.37,-32.97,-33.55,0,*56
1487055727.16,11944,10.44,74380.5,-3.37,-32.85,-33.55,0,*52
1487055728.45,11945,10.44,74382.5,-3.37,-32.85,-33.43,0,*54
1487055729.72,11946,10.44,74384.0,-3.37,-32.85,-33.37,0,*54
1487055730.96,11947,10.44,74386.8,-3.35,-32.75,-33.37,0,*58
1487055732.19,11948,10.44,74388.3,-3.35,-32.91,-33.49,0,*54
1487055733.46,11949,10.44,74388.5,-3.35,-32.79,-33.49,0,*53
1487055734.72,11950,10.44,74388.8,-3.35,-32.79,-33.49,0,*5B
1487055736.01,11951,10.44,74386.0,-3.33,-32.97,-33.49,0,*5C
1487055737.26,11952,10.44,74390.5,-3.33,-33.15,-33.73,0,*5D
1487055738.52,11953,10.44,74388.3,-3.33,-33.21,-33.89,0,*5E
1487055739.74,11954,10.44,74388.3,-3.35,-33.83,-34.59,0,*5D
1487055740.96,11955,10.44,74380.3,-3.35,-33.67,-34.47,0,*59
1487055742.17,11956,10.44,74380.3,-3.35,-33.21,-33.83,0,*57
1487055743.42,11957,10.44,74378.8,-3.37,-33.43,-34.13,0,*5E
1487055744.67,11958,10.44,74376.3,-3.35,-33.73,-34.47,0,*51
1487055745.94,11959,10.44,74374.3,-3.37,-34.07,-34.65,0,*56
1487055747.17,11960,10.38,74372.3,-3.37,-34.25,-34.89,0,*5E
1487055748.38,11961,10.44,74372.3,-3.39,-34.07,-34.71,0,*56
1487055749.61,11962,10.44,74376.8,-3.39,-33.77,-34.41,0,*56
1487055750.8,11963,10.44,74374.8,-3.39,-33.55,-34.25,0,*55
1487055752.06,11964,10.44,74374.5,-3.37,-33.03,-33.73,0,*5B
1487055753.27,11965,10.44,74372.8,-3.39,-33.37,-33.95,0,*5B
1487055754.48,11966,10.44,74378.0,-3.39,-33.37,-34.13,0,*51
1487055755.74,11967,10.44,74376.5,-3.37,-33.15,-33.73,0,*5F
1487055756.99,11968,10.44,74380.5,-3.37,-32.97,-33.55,0,*5F
1487055758.25,11969,10.38,74382.8,-3.39,-33.27,-33.77,0,*5A
1487055759.47,11970,10.44,74386.3,-3.39,-33.15,-33.77,0,*53
1487055760.68,11971,10.44,74390.5,-3.39,-33.37,-33.95,0,*5E
1487055761.91,11972,10.44,74390.0,-3.39,-33.43,-34.07,0,*52
1487055763.16,11973,10.44,74390.3,-3.39,-33.73,-34.31,0,*55
1487055764.42,11974,10.44,74388.0,-3.39,-33.27,-33.77,0,*56
1487055765.64,11975,10.44,74392.3,-3.39,-33.15,-33.77,0,*56
1487055766.9,11976,10.44,74386.0,-3.39,-32.97,-33.43,0,*59
1487055768.17,11977,10.44,74382.8,-3.39,-32.85,-33.43,0,*5B
1487055769.39,11978,10.44,74382.0,-3.39,-33.03,-33.61,0,*5B
1487055770.62,11979,10.44,74380.3,-3.39,-33.03,-33.61,0,*5A
1487055771.87,11980,10.44,74380.0,-3.39,-33.27,-33.89,0,*5C
1487055773.08,11981,10.38,74384.5,-3.39,-33.55,-34.13,0,*5C
1487055774.33,11982,10.44,74392.5,-3.39,-33.73,-34.31,0,*5B
1487055775.54,11983,10.44,74390.0,-3.39,-33.37,-33.95,0,*53
1487055776.77,11984,10.44,74386.5,-3.39,-33.21,-33.89,0,*5E
1487055778.0,11985,10.44,74380.8,-3.39,-33.03,-33.73,0,*5A
1487055779.23,11986,10.44,74368.8,-3.39,-33.37,-33.89,0,*5B
1487055780.46,11987,10.44,74374.5,-3.39,-33.73,-34.41,0,*59
1487055781.72,11988,10.44,74376.8,-3.39,-33.73,-34.31,0,*51
1487055782.96,11989,10.44,74378.3,-3.45,-34.53,-35.29,0,*56
1487055784.17,11990,10.44,74380.3,-3.45,-34.07,-34.77,0,*55
1487055785.43,11991,10.44,74368.8,-3.45,-33.73,-34.35,0,*56
1487055786.63,11992,10.44,74364.5,-3.45,-33.67,-34.41,0,*53
1487055787.88,11993,10.44,74360.8,-3.45,-34.19,-34.83,0,*52
1487055789.12,11994,10.44,74362.5,-3.45,-34.65,-35.47,0,*57
1487055790.35,11995,10.44,74364.0,-3.45,-34.53,-35.17,0,*56
1487055791.61,11996,10.44,74368.5,-3.49,-34.83,-35.41,0,*57
1487055792.83,11997,10.44,74366.5,-3.49,-34.47,-35.17,0,*5D
1487055794.06,11998,10.44,74366.5,-3.51,-34.25,-35.01,0,*58
1487055795.32,11999,10.44,74372.5,-3.51,-33.73,-34.41,0,*58
1487055796.58,12000,10.44,74368.5,-3.51,-34.07,-34.83,0,*58
1487055797.81,12001,10.44,74372.3,-3.51,-33.55,-34.25,0,*55
1487055799.02,12002,10.44,74366.0,-3.53,-33.95,-34.47,0,*5C
1487055800.23,12003,10.44,74372.8,-3.53,-33.37,-33.83,0,*5A
1487055801.46,12004,10.44,74370.5,-3.53,-33.43,-34.13,0,*50
1487055802.73,12005,10.44,74370.5,-3.53,-33.49,-34.01,0,*58
1487055803.96,12006,10.44,74374.5,-3.53,-33.27,-33.83,0,*5E
1487055805.2,12007,10.44,74372.0,-3.53,-33.21,-33.77,0,*52
1487055806.44,12008,10.44,74372.8,-3.51,-32.69,-33.37,0,*56
1487055807.7,12009,10.44,74374.5,-3.51,-33.03,-33.61,0,*59
1487055808.95,12010,10.44,74374.8,-3.51,-32.97,-33.55,0,*5A
1487055810.18,12011,10.44,74370.0,-3.51,-33.55,-34.25,0,*54
1487055811.41,12012,10.44,74368.8,-3.53,-33.67,-34.19,0,*5B
1487055812.64,12013,10.44,74360.8,-3.51,-33.95,-34.71,0,*5B
1487055813.9,12014,10.44,74364.0,-3.51,-34.31,-35.01,0,*53
1487055815.15,12015,10.44,74362.8,-3.53,-34.65,-35.29,0,*5B
1487055816.39,12016,10.44,74360.0,-3.53,-34.35,-35.13,0,*54
1487055817.61,12017,10.44,74358.8,-3.53,-34.71,-35.29,0,*5C
1487055818.85,12018,10.44,74362.5,-3.55,-34.77,-35.59,0,*54
1487055820.07,12019,10.44,74360.8,-3.57,-34.77,-35.29,0,*50
1487055821.31,12020,10.44,74366.0,-3.57,-34.19,-35.13,0,*5B
1487055822.58,12021,10.44,74364.0,-3.57,-34.35,-34.95,0,*5B
1487055823.81,12022,10.44,74368.0,-3.57,-34.25,-34.83,0,*5E
1487055825.06,12023,10.44,74370.8,-3.59,-33.89,-34.41,0,*5E
1487055826.32,12024,10.44,74370.5,-3.59,-33.67,-34.35,0,*5A
1487055827.58,12025,10.44,74368.0,-3.59,-34.01,-34.59,0,*56
1487055828.84,12026,10.44,74368.3,-3.59,-34.01,-34.59,0,*55
1487055830.1,12027,10.44,74370.5,-3.61,-33.73,-34.31,0,*53
1487055831.36,12028,10.44,74368.8,-3.61,-33.77,-34.31,0,*58
1487055832.62,12029,10.44,74376.8,-3.59,-33.73,-34.41,0,*51
1487055833.9,12030,10.44,74376.5,-3.59,-33.73,-34.35,0,*5A
1487055835.18,12031,10.44,74374.5,-3.59,-33.89,-34.53,0,*5E
1487055836.47,12032,10.44,74376.8,-3.59,-33.31,-33.73,0,*5B
1487055837.71,12033,10.44,74382.5,-3.61,-33.37,-33.89,0,*52
1487055838.93,12034,10.44,74384.0,-3.59,-33.15,-33.83,0,*54
1487055840.22,12035,10.44,74384.5,-3.59,-33.49,-34.01,0,*51
1487055841.46,12036,10.44,74384.3,-3.61,-33.61,-34.07,0,*55
1487055842.74,12037,10.44,74382.5,-3.59,-33.43,-34.01,0,*59
1487055843.95,12038,10.44,74382.0,-3.61,-33.37,-33.95,0,*54
1487055845.21,12039,10.44,74380.3,-3.59,-33.67,-34.19,0,*58
1487055846.49,12040,10.44,74378.8,-3.59,-33.73,-34.35,0,*5D
1487055847.75,12041,10.44,74376.5,-3.61,-33.73,-34.31,0,*53
1487055848.97,12042,10.44,74370.3,-3.61,-34.13,-34.77,0,*53
1487055850.18,12043,10.44,74370.0,-3.61,-34.13,-34.77,0,*52
1487055851.4,12044,10.44,74368.5,-3.61,-34.77,-35.47,0,*55
1487055852.64,12045,10.44,74372.0,-3.65,-34.47,-35.23,0,*51
1487055853.93,12046,10.44,74372.3,-3.67,-34.53,-35.23,0,*55
1487055855.2,12047,10.44,74372.3,-3.67,-34.53,-35.13,0,*57
1487055856.45,12048,10.44,74376.0,-3.67,-34.47,-35.13,0,*5D
1487055857.74,12049,10.44,74376.0,-3.67,-34.01,-34.53,0,*5B
1487055859.03,12050,10.5,74378.0,-3.67,-33.77,-34.35,0,*55
1487055860.32,12051,10.44,74378.3,-3.67,-34.31,-34.95,0,*5B
1487055861.56,12052,10.44,74378.8,-3.69,-34.19,-34.77,0,*50
1487055862.82,12053,10.44,74374.3,-3.69,-33.73,-34.35,0,*5C
1487055864.05,12054,10.44,74376.0,-3.69,-33.83,-34.35,0,*54
1487055865.29,12055,10.44,74374.8,-3.69,-34.19,-34.71,0,*51
1487055866.5,12056,10.44,74374.3,-3.69,-34.25,-34.59,0,*57
1487055867.73,12057,10.44,74374.8,-3.69,-33.73,-34.41,0,*5B
1487055868.96,12058,10.44,74376.0,-3.71,-33.83,-34.25,0,*50
1487055870.21,12059,10.44,74382.0,-3.71,-34.01,-34.41,0,*5E
1487055871.44,12060,10.44,74380.5,-3.69,-34.01,-34.41,0,*5D
1487055872.71,12061,10.44,74380.3,-3.71,-34.07,-34.53,0,*50
1487055873.95,12062,10.44,74380.5,-3.69,-34.19,-34.71,0,*55
1487055875.21,12063,10.44,74382.3,-3.71,-34.07,-34.53,0,*52
1487055876.43,12064,10.5,74390.0,-3.71,-33.67,-34.25,0,*55
1487055877.71,12065,10.44,74390.0,-3.71,-33.61,-34.19,0,*5D
1487055878.96,12066,10.44,74388.0,-3.71,-33.61,-34.07,0,*51
1487055880.24,12067,10.44,74386.3,-3.71,-33.49,-34.01,0,*5C
1487055881.48,12068,10.44,74390.8,-3.73,-33.95,-34.47,0,*52
1487055882.76,12069,10.44,74390.0,-3.73,-33.77,-34.31,0,*5E
1487055883.97,12070,10.44,74390.0,-3.75,-33.67,-34.13,0,*51
1487055885.2,12071,10.44,74388.3,-3.75,-33.89,-34.41,0,*57
1487055886.43,12072,10.5,74388.3,-3.73,-33.95,-34.47,0,*59
1487055887.69,12073,10.44,74390.5,-3.73,-33.89,-34.41,0,*53
1487055888.92,12074,10.44,74384.5,-3.73,-33.95,-34.47,0,*5F
1487055890.13,12075,10.44,74384.8,-3.75,-33.95,-34.47,0,*58
1487055891.39,12076,10.44,74388.0,-3.75,-33.77,-34.31,0,*56
1487055892.59,12077,10.44,74384.5,-3.75,-33.67,-34.25,0,*53
1487055893.85,12078,10.5,74388.5,-3.75,-33.73,-34.31,0,*5C
1487055895.08,12079,10.44,74380.5,-3.73,-33.95,-34.47,0,*52
1487055896.32,12080,10.44,74376.8,-3.73,-34.13,-34.59,0,*52
1487055897.54,12081,10.44,74380.3,-3.75,-34.47,-35.17,0,*5F
1487055898.77,12082,10.5,74382.3,-3.75,-34.65,-35.17,0,*5C
1487055900.02,12083,10.5,74382.3,-3.77,-34.47,-35.01,0,*58
1487055901.27,12084,10.44,74386.8,-3.79,-34.31,-34.83,0,*5B
1487055902.54,12085,10.44,74386.0,-3.79,-34.01,-34.53,0,*54
1487055903.76,12086,10.5,74384.3,-3.79,-33.95,-34.35,0,*5D
1487055904.99,12087,10.44,74382.3,-3.79,-34.19,-34.71,0,*5F
1487055906.23,12088,10.5,74388.3,-3.79,-34.13,-34.65,0,*5F
1487055907.46,12089,10.44,74384.0,-3.79,-33.95,-34.35,0,*52
1487055908.7,12090,10.5,74384.5,-3.79,-34.13,-34.53,0,*53
1487055909.93,12091,10.44,74380.5,-3.79,-34.35,-34.89,0,*51
1487055911.13,12092,10.44,74386.5,-3.79,-33.95,-34.47,0,*5D
1487055912.42,12093,10.44,74386.8,-3.81,-34.35,-34.95,0,*59
1487055913.63,12094,10.44,74382.0,-3.83,-34.25,-34.71,0,*57
1487055914.84,12095,10.5,74382.5,-3.83,-34.07,-34.71,0,*56
1487055916.05,12096,10.44,74376.5,-3.83,-34.25,-34.77,0,*53
1487055917.26,12097,10.5,74378.5,-3.83,-34.25,-34.71,0,*54
1487055918.47,12098,10.44,74376.8,-3.83,-34.71,-35.17,0,*5B
1487055919.74,12099,10.44,74376.0,-3.89,-34.65,-35.17,0,*55
1487055920.97,12100,10.5,74380.5,-3.87,-34.41,-34.83,0,*50
1487055922.24,12101,10.5,74384.8,-3.89,-34.53,-35.01,0,*57
1487055923.51,12102,10.44,74380.3,-3.89,-34.19,-34.71,0,*5C
1487055924.77,12103,10.44,74380.3,-3.91,-34.01,-34.53,0,*5D
1487055926.01,12104,10.5,74382.8,-3.91,-34.31,-34.71,0,*59
1487055927.27,12105,10.5,74378.8,-3.93,-34.71,-35.35,0,*5F
1487055928.51,12106,10.44,74376.0,-3.91,-34.65,-35.17,0,*5B
1487055929.75,12107,10.44,74370.8,-3.91,-34.65,-35.01,0,*5D
1487055931.02,12108,10.5,74372.8,-3.93,-34.71,-35.23,0,*55
1487055932.26,12109,10.44,74368.0,-3.95,-34.71,-35.35,0,*55
1487055933.5,12110,10.44,74370.3,-3.95,-35.13,-35.65,0,*5D
1487055934.74,12111,10.5,74376.5,-3.97,-34.77,-35.13,0,*5C
1487055935.95,12112,10.44,74372.3,-3.95,-34.25,-34.89,0,*58
1487055937.21,12113,10.44,74374.5,-3.97,-34.41,-34.83,0,*53
1487055938.48,12114,10.5,74376.8,-3.97,-34.31,-34.77,0,*58
1487055939.72,12115,10.44,74378.0,-3.97,-34.25,-34.77,0,*5C
1487055940.97,12116,10.5,74372.8,-3.97,-34.13,-34.59,0,*56
1487055942.21,12117,10.5,74380.5,-3.97,-34.13,-34.59,0,*57
1487055943.46,12118,10.5,74380.0,-3.97,-34.59,-35.13,0,*59
1487055944.7,12119,10.5,74382.0,-3.99,-34.41,-34.83,0,*57
1487055945.94,12120,10.5,74382.0,-3.99,-34.13,-34.65,0,*52
1487055947.17,12121,10.44,74380.0,-3.99,-33.89,-34.41,0,*51
1487055948.42,12122,10.5,74380.0,-3.99,-34.13,-34.65,0,*50
1487055949.64,12123,10.5,74376.3,-3.99,-34.13,-34.47,0,*51
1487055950.91,12124,10.44,74372.5,-4.01,-34.31,-34.71,0,*55
1487055952.15,12125,10.5,74376.8,-4.01,-34.47,-34.89,0,*52
1487055953.44,12126,10.5,74366.0,-4.01,-34.31,-34.83,0,*5A
1487055954.66,12127,10.5,74368.8,-3.99,-34.47,-35.13,0,*54
1487055955.91,12128,10.5,74366.8,-4.01,-35.01,-35.59,0,*50
1487055957.17,12129,10.5,74372.3,-4.05,-35.07,-35.65,0,*5C
1487055958.41,12130,10.5,74370.0,-4.03,-35.07,-35.59,0,*5D
1487055959.64,12131,10.5,74374.3,-4.05,-34.71,-35.13,0,*54
1487055960.86,12132,10.5,74378.3,-4.05,-34.77,-35.13,0,*51
1487055962.11,12133,10.5,74376.5,-4.05,-34.59,-34.95,0,*53
1487055963.35,12134,10.5,74378.5,-4.09,-34.41,-34.95,0,*51
1487055964.57,12135,10.5,74382.0,-4.09,-34.77,-35.13,0,*5A
1487055965.84,12136,10.5,74374.8,-4.11,-34.83,-35.29,0,*52
1487055967.08,12137,10.5,74376.0,-4.09,-34.41,-34.95,0,*52
1487055968.31,12138,10.5,74376.8,-4.11,-34.77,-35.17,0,*5A
1487055969.59,12139,10.5,74372.3,-4.11,-34.47,-34.95,0,*53
1487055970.85,12140,10.5,74372.0,-4.11,-34.25,-34.65,0,*56
1487055972.1,12141,10.5,74376.0,-4.13,-34.47,-34.95,0,*5E
1487055973.35,12142,10.5,74374.0,-4.13,-34.31,-34.77,0,*50
1487055974.57,12143,10.5,74376.3,-4.13,-34.07,-34.59,0,*58
1487055975.79,12144,10.5,74378.8,-4.13,-34.07,-34.59,0,*5F
1487055977.03,12145,10.5,74382.5,-4.13,-34.01,-34.59,0,*58
1487055978.27,12146,10.5,74382.5,-4.13,-34.01,-34.41,0,*52
1487055979.53,12147,10.5,74380.5,-4.13,-33.89,-34.31,0,*53
1487055980.79,12148,10.5,74384.0,-4.15,-33.95,-34.35,0,*53
1487055982.04,12149,10.5,74382.5,-4.15,-33.89,-34.25,0,*5E
1487055983.27,12150,10.5,74386.0,-4.13,-33.89,-34.25,0,*50
1487055984.55,12151,10.5,74384.8,-4.15,-33.89,-34.31,0,*52
1487055985.82,12152,10.5,74382.3,-4.15,-33.77,-34.13,0,*50
1487055987.1,12153,10.5,74378.3,-4.15,-33.77,-34.31,0,*51
1487055988.34,12154,10.5,74378.3,-4.15,-33.95,-34.47,0,*5B
1487055989.6,12155,10.5,74380.5,-4.15,-33.95,-34.35,0,*5F
1487055990.87,12156,10.5,74382.5,-4.15,-34.13,-34.65,0,*50
1487055992.15,12157,10.5,74384.5,-4.15,-34.07,-34.53,0,*51
1487055993.38,12158,10.5,74384.0,-4.13,-33.83,-34.19,0,*5D
1487055994.62,12159,10.5,74382.3,-4.17,-33.95,-34.31,0,*55
1487055995.89,12160,10.5,74380.0,-4.15,-34.13,-34.53,0,*50
1487055997.13,12161,10.5,74380.8,-4.17,-34.13,-34.53,0,*53
1487055998.38,12162,10.5,74380.5,-4.17,-34.13,-34.53,0,*50
1487055999.64,12163,10.5,74382.3,-4.19,-34.31,-34.59,0,*55
1487056000.91,12164,10.5,74376.5,-4.19,-34.13,-34.53,0,*58
1487056002.18,12165,10.5,74380.0,-4.19,-34.19,-34.59,0,*59
1487056003.45,12166,10.5,74378.8,-4.19,-34.13,-34.53,0,*5A
1487056004.71,12167,10.5,74374.0,-4.19,-34.13,-34.53,0,*5B
1487056005.98,12168,10.5,74380.5,-4.19,-34.31,-34.59,0,*5E
1487056007.22,12169,10.5,74376.5,-4.21,-34.19,-34.59,0,*5E
1487056008.47,12170,10.5,74376.5,-4.21,-34.25,-34.65,0,*56
1487056009.76,12171,10.5,74382.5,-4.23,-34.19,-34.65,0,*5A
1487056011.0,12172,10.5,74380.5,-4.21,-34.19,-34.59,0,*54
1487056012.25,12173,10.5,74380.8,-4.23,-34.07,-34.47,0,*57
1487056013.53,12174,10.5,74380.8,-4.23,-34.01,-34.35,0,*53
1487056014.79,12175,10.5,74376.5,-4.21,-33.89,-34.35,0,*57
1487056016.07,12176,10.5,74380.3,-4.23,-34.01,-34.35,0,*51
1487056017.31,12177,10.5,74380.0,-4.21,-34.07,-34.35,0,*54
1487056018.57,12178,10.5,74382.0,-4.23,-34.01,-34.41,0,*5C
1487056019.85,12179,10.5,74376.5,-4.23,-33.89,-34.35,0,*59
1487056021.09,12180,10.5,74382.3,-4.25,-34.13,-34.53,0,*5D
1487056022.3,12181,10.5,74378.0,-4.25,-34.07,-34.41,0,*5A
1487056023.56,12182,10.5,74384.0,-4.27,-33.89,-34.13,0,*5D
1487056024.82,12183,10.5,74378.8,-4.27,-33.77,-34.25,0,*58
1487056026.03,12184,10.5,74378.5,-4.25,-34.13,-34.41,0,*5A
1487056027.27,12185,10.5,74384.8,-4.25,-34.13,-34.53,0,*58
1487056028.49,12186,10.5,74382.0,-4.25,-34.13,-34.47,0,*5E
1487056029.75,12187,10.5,74384.5,-4.27,-33.89,-34.13,0,*58
1487056031.02,12188,10.5,74382.5,-4.27,-33.73,-34.07,0,*57
1487056032.22,12189,10.5,74380.8,-4.25,-33.95,-34.25,0,*5C
1487056033.49,12190,10.5,74386.5,-4.27,-33.73,-34.13,0,*5B
1487056034.76,12191,10.5,74380.0,-4.27,-33.77,-34.13,0,*5E
1487056036.01,12192,10.5,74384.0,-4.27,-33.89,-34.25,0,*59
1487056037.27,12193,10.5,74382.8,-4.27,-33.95,-34.31,0,*50
1487056038.55,12194,10.5,74382.0,-4.27,-33.89,-34.31,0,*5A
1487056039.78,12195,10.5,74382.8,-4.27,-33.95,-34.41,0,*51
1487056041.02,12196,10.5,74384.0,-4.33,-34.19,-34.47,0,*52
1487056042.27,12197,10.5,74380.3,-4.33,-34.01,-34.47,0,*5A
1487056043.49,12198,10.5,74382.8,-4.29,-34.13,-34.47,0,*5D
1487056044.75,12199,10.5,74378.8,-4.29,-34.01,-34.35,0,*5A
1487056046.02,12200,10.5,74378.8,-4.29,-34.01,-34.19,0,*57
1487056047.27,12201,10.5,74386.0,-4.29,-34.01,-34.47,0,*5D
1487056048.5,12202,10.5,74380.5,-4.33,-33.95,-34.19,0,*54
1487056049.76,12203,10.5,74380.5,-4.29,-34.01,-34.35,0,*5A
1487056051.0,12204,10.5,74382.5,-4.33,-34.19,-34.59,0,*55
1487056052.26,12205,10.5,74384.0,-4.35,-34.19,-34.59,0,*52
1487056053.52,12206,10.5,74384.3,-4.35,-34.19,-34.59,0,*51
1487056054.76,12207,10.5,74382.8,-4.35,-34.07,-34.25,0,*54
1487056056.01,12208,10.5,74382.5,-4.37,-34.01,-34.35,0,*5E
1487056057.25,12209,10.5,74380.3,-4.37,-33.89,-34.19,0,*56
1487056058.46,12210,10.5,74380.0,-4.37,-33.89,-34.25,0,*51
1487056059.69,12211,10.5,74384.5,-4.37,-34.01,-34.41,0,*55
1487056060.95,12212,10.5,74384.0,-4.35,-34.07,-34.35,0,*51
1487056062.17,12213,10.5,74380.3,-4.39,-34.13,-34.41,0,*5A
1487056063.4,12214,10.5,74384.3,-4.39,-34.13,-34.47,0,*5B
1487056064.65,12215,10.56,74388.0,-4.37,-34.01,-34.35,0,*52
1487056065.87,12216,10.5,74384.5,-4.41,-34.13,-34.31,0,*57
1487056067.09,12217,10.56,74384.5,-4.41,-33.95,-34.31,0,*5F
1487056068.32,12218,10.5,74388.5,-4.41,-33.77,-34.13,0,*5C
1487056069.55,12219,10.5,74386.5,-4.41,-33.77,-34.07,0,*58
1487056070.8,12220,10.5,74384.8,-4.39,-33.77,-34.13,0,*58
1487056072.04,12221,10.5,74386.3,-4.39,-33.89,-34.13,0,*58
1487056073.26,12222,10.56,74390.0,-4.41,-33.89,-34.25,0,*51
1487056074.49,12223,10.56,74390.3,-4.41,-33.77,-34.13,0,*54
1487056075.71,12224,10.5,74388.0,-4.41,-33.89,-34.25,0,*57
1487056076.93,12225,10.5,74388.8,-4.41,-33.77,-34.13,0,*52
1487056078.16,12226,10.56,74390.5,-4.41,-33.95,-34.31,0,*5D
1487056079.4,12227,10.56,74390.8,-4.43,-33.95,-34.19,0,*54
1487056080.65,12228,10.56,74388.5,-4.45,-33.89,-34.19,0,*50
1487056081.87,12229,10.56,74390.5,-4.41,-33.77,-34.13,0,*5E
1487056083.15,12230,10.5,74388.0,-4.43,-33.77,-34.01,0,*57
1487056084.38,12231,10.5,74390.3,-4.45,-33.89,-34.07,0,*57
1487056085.58,12232,10.5,74388.8,-4.45,-33.83,-34.07,0,*5E
1487056086.78,12233,10.5,74386.5,-4.45,-33.83,-34.07,0,*5F
1487056088.01,12234,10.5,74386.5,-4.45,-34.01,-34.25,0,*55
1487056089.23,12235,10.5,74388.3,-4.45,-34.01,-34.25,0,*54
1487056090.43,12236,10.5,74386.5,-4.45,-33.83,-34.25,0,*5A
1487056091.66,12237,10.5,74388.5,-4.45,-33.83,-34.19,0,*54
1487056092.86,12238,10.5,74388.0,-4.45,-33.83,-34.07,0,*54
1487056094.07,12239,10.5,74382.3,-4.45,-33.67,-34.07,0,*5F
1487056095.29,12240,10.5,74384.0,-4.47,-33.83,-34.07,0,*59
1487056096.57,12241,10.56,74384.8,-4.47,-33.73,-34.01,0,*51
1487056097.84,12242,10.56,74386.8,-4.47,-33.89,-34.19,0,*5E
1487056099.05,12243,10.5,74384.8,-4.49,-33.89,-34.25,0,*5E
1487056100.28,12244,10.56,74386.0,-4.49,-33.89,-34.13,0,*5C